This demonstration page uses our WeatherBlox Daily Observations layout. Learn more.

Left ArrowRight Arrow

Hourly Observations for February 8, 2015

Temp ( °F °C ) Dew Point ( °F °C ) Humidity (%) Winds ( mph kmh ) Pressure ( in mb ) Visibility ( mi km ) Precip ( " mm )
12:06 am 00:06 Cloudy 60 15.6 56 13.3 86 86 SSW 8 13 30.03 1017 10 16 0.00 0.00
12:16 am 00:16 Cloudy 59 15 56 13.3 90 90 SSW 7 11 30.03 1017 10 16 0.00 0.00
12:53 am 00:53 Cloudy 58 14.4 55 12.8 90 90 S 8 13 30.03 1017 10 16 0.00 0.00
1:53 am 01:53 Cloudy 59 15 56 13.3 90 90 SSW 7 11 30.03 1017 10 16 0.00 0.00
2:53 am 02:53 Cloudy 59 15 56 13.3 90 90 SW 7 11 30.02 1017 10 16 0.00 0.00
3:53 am 03:53 Cloudy 58 14.4 55 12.8 90 90 SSW 7 11 30.01 1016 10 16 0.00 0.00
4:24 am 04:24 Cloudy 57 14 55 13 94 94 SSW 3 6 30.00 1016 10 16 0.00 0.00
4:26 am 04:26 Cloudy 57 14 55 13 94 94 S 5 7 30.00 1016 10 16 0.00 0.00
4:33 am 04:33 Cloudy 58 14.4 55 12.8 90 90 SSW 5 7 30.00 1016 10 16 0.00 0.00
4:40 am 04:40 Cloudy 57 14 55 13 94 94 SSW 6 9 30.00 1016 10 16 0.00 0.00
4:53 am 04:53 Cloudy 58 14.4 55 12.8 90 90 Calm 30.00 1016 10 16 0.00 0.00
5:53 am 05:53 Cloudy 58 14.4 55 12.8 90 90 Calm 29.99 1016 10 16 0.00 0.00
6:53 am 06:53 Cloudy with Light Rain 57 13.9 55 12.8 93 93 ENE 3 6 29.99 1016 3 5 0.00 0.03
7:53 am 07:53 Cloudy with Light Rain 57 13.9 55 12.8 93 93 Calm 29.97 1015 3 4 0.10 2.54
8:53 am 08:53 Cloudy with Light Rain 57 13.9 56 13.3 96 96 Calm 29.96 1015 3 5 0.00 0.03
9:53 am 09:53 Cloudy with Light Rain 57 13.9 56 13.3 96 96 E 5 7 29.92 1013 3 5 0.02 0.51
10:53 am 10:53 Cloudy with Light Rain 60 15.6 57 13.9 90 90 S 20 31 29.93 1014 6 10 0.11 2.79
11:53 am 11:53 Cloudy with Light Rain 61 16.1 58 14.4 90 90 SSE 15 24 29.84 1010 10 16 0.07 1.78
12:21 pm 12:21 Cloudy with Rain 60 15.6 58 14.4 93 93 S 16 26 29.85 1011 2 2 0.02 0.51
12:53 pm 12:53 Cloudy with Light Rain 60 15.6 57 13.9 90 90 S 18 30 29.81 1009 7 11 0.21 5.33
1:21 pm 13:21 Cloudy with Light Rain 60 15.6 57 13.9 90 90 S 8 13 29.77 1008 3 4 0.04 1.02
1:53 pm 13:53 Cloudy with Light Rain 60 15.6 56 13.3 86 86 S 17 28 29.77 1008 7 11 0.17 4.32
2:44 pm 14:44 Cloudy with Haze 63 17 57 14 83 83 SSE 32 52 29.74 1007 6 10 0.00 0.00
2:53 pm 14:53 Cloudy 62 16.7 56 13.3 80 80 S 29 46 29.74 1007 10 16 0.01 0.25
3:30 pm 15:30 Mostly Cloudy 63 17 55 13 77 77 S 26 43 29.74 1007 10 16 0.00 0.00
3:42 pm 15:42 Mostly Cloudy 63 17 55 13 77 77 S 29 46 29.74 1007 10 16 0.00 0.00
3:53 pm 15:53 Partly Cloudy 62 16.7 55 12.8 78 78 SSE 26 43 29.74 1007 10 16 0.00 0.00
4:08 pm 16:08 Mostly Cloudy 63 17 55 13 77 77 SSE 25 41 29.74 1007 10 16 0.00 0.00
4:22 pm 16:22 Partly Cloudy 63 17 54 12 73 73 S 21 33 29.77 1008 10 16 0.00 0.00
4:53 pm 16:53 Mostly Sunny 62 16.7 53 11.7 73 73 SSE 23 37 29.74 1007 10 16 0.00 0.00
5:53 pm 17:53 Cloudy with Light Rain 61 16.1 53 11.7 75 75 SSE 22 35 29.74 1007 10 16 0.00 0.03
6:53 pm 18:53 Mostly Cloudy 60 15.6 52 11.1 75 75 SSE 23 37 29.74 1007 10 16 0.00 0.03
7:53 pm 19:53 Partly Cloudy 60 15.6 53 11.7 78 78 S 24 39 29.75 1007 10 16 0.00 0.00
8:10 pm 20:10 Mostly Cloudy 61 16 54 12 77 77 S 25 41 29.77 1008 10 16 0.00 0.00
8:42 pm 20:42 Mostly Clear 61 16 54 12 77 77 S 30 48 29.74 1007 10 16 0.00 0.00
8:53 pm 20:53 Mostly Clear 60 15.6 53 11.7 78 78 S 26 43 29.75 1008 10 16 0.00 0.00
9:53 pm 21:53 Mostly Clear 60 15.6 51 10.6 72 72 SSE 21 33 29.75 1008 10 16 0.00 0.00
10:53 pm 22:53 Cloudy with Light Rain 59 15 52 11.1 78 78 S 24 39 29.70 1006 10 16 0.05 1.27
11:53 pm 23:53 Cloudy 60 15.6 52 11.1 75 75 S 41 67 29.72 1007 10 16 0.00 0.03

Powered by AerisWeather